TimePDT,TemperatureF,Dew PointF,Humidity,Sea Level PressureIn,VisibilityMPH,Wind Direction,Wind SpeedMPH,Gust SpeedMPH,PrecipitationIn,Events,Conditions,WindDirDegrees,DateUTC
12:52 AM,48.9,24.1,38,30.14,10.0,NNW,3.5,-,N/A,,Clear,340,2013-03-11 07:52:00
1:52 AM,52.0,26.1,37,30.14,10.0,North,8.1,-,N/A,,Clear,350,2013-03-11 08:52:00
3:52 AM,46.9,26.1,44,30.12,10.0,North,3.5,-,N/A,,Clear,360,2013-03-11 10:52:00
4:52 AM,50.0,24.1,36,30.12,10.0,NNE,6.9,-,N/A,,Clear,20,2013-03-11 11:52:00
5:52 AM,43.0,25.0,49,30.12,10.0,NNW,3.5,-,N/A,,Clear,340,2013-03-11 12:52:00
6:52 AM,42.1,24.1,49,30.13,10.0,NNW,10.4,-,N/A,,Clear,330,2013-03-11 13:52:00
7:52 AM,52.0,25.0,35,30.14,10.0,North,4.6,-,N/A,,Clear,350,2013-03-11 14:52:00
8:52 AM,62.1,26.1,25,30.15,10.0,NNW,6.9,-,N/A,,Clear,340,2013-03-11 15:52:00
9:52 AM,68.0,26.1,21,30.15,10.0,Calm,Calm,-,N/A,,Clear,0,2013-03-11 16:52:00
10:52 AM,73.9,23.0,15,30.14,10.0,Calm,Calm,-,N/A,,Clear,0,2013-03-11 17:52:00
11:52 AM,79.0,18.0,10,30.11,10.0,Calm,Calm,-,N/A,,Clear,0,2013-03-11 18:52:00
12:52 PM,82.0,21.9,11,30.09,10.0,Variable,6.9,-,N/A,,Clear,0,2013-03-11 19:52:00
1:52 PM,82.9,23.0,11,30.05,10.0,SSE,9.2,-,N/A,,Clear,150,2013-03-11 20:52:00
2:52 PM,84.0,16.0,8,30.02,10.0,Variable,6.9,-,N/A,,Clear,0,2013-03-11 21:52:00
3:52 PM,84.9,16.0,8,30.00,10.0,SSE,6.9,-,N/A,,Clear,150,2013-03-11 22:52:00
4:52 PM,82.9,18.0,9,29.98,10.0,SE,9.2,-,N/A,,Clear,140,2013-03-11 23:52:00
5:52 PM,80.1,25.0,13,29.96,10.0,SSE,8.1,-,N/A,,Clear,150,2013-03-12 00:52:00
6:52 PM,71.1,30.0,22,29.96,10.0,SSE,5.8,-,N/A,,Clear,160,2013-03-12 01:52:00
7:52 PM,61.0,32.0,34,29.97,10.0,South,4.6,-,N/A,,Clear,190,2013-03-12 02:52:00
8:52 PM,57.0,33.1,40,29.99,10.0,NE,4.6,-,N/A,,Clear,40,2013-03-12 03:52:00
9:52 PM,55.0,32.0,42,30.01,10.0,NNE,3.5,-,N/A,,Clear,20,2013-03-12 04:52:00
10:52 PM,55.9,34.0,44,30.03,10.0,NW,4.6,-,N/A,,Clear,320,2013-03-12 05:52:00
11:52 PM,52.0,35.1,53,30.03,10.0,North,3.5,-,N/A,,Clear,350,2013-03-12 06:52:00